User: anonymous   Login
Location: Augustenthal
(51.7167°N, 10.2833°E)
Time: 23:35:33
(UTC+00:00)
Language:

Cosmos 2251 Rocket - Orbit

View from above orbital plane
View from above orbital plane
View from above satellite
View from above satellite

Ground track
Ground track

The orbit data is extracted from the following two-line orbital elements,

1 22676U 93036B   21217.51276975  .00000022  00000-0  17231-4 0  9991
2 22676  74.0434 299.4087 0019728 314.7311  45.2234 14.34044096471831
Epoch (UTC): 05 August 2021 12:18:23
Eccentricity: 0.0019728
inclination: 74.0434°
perigee height: 764 km
apogee height: 792 km
right ascension of ascending node: 299.4087°
argument of perigee: 314.7311°
revolutions per day: 14.34044096
mean anomaly at epoch: 45.2234°
orbit number at epoch: 47183

The dashed part of the orbit path shows where the satellite is in the earth's shadow,  

DLR